| DS18B20 | SHTC3 | ||||||
|---|---|---|---|---|---|---|---|
| ID | Date d/m/Y & Time | data1 สูง | data2 ต่ำ | data3 นอก | temp pcb | hum pcb | Time |
| 2763 | 15/03/2026 17:47:35 | 30.4  | 30.5  | 28.9  | 30.4  | 72.0  | 17:47 |
| 2762 | 15/03/2026 17:42:54 | 30.4  | 30.5  | 28.9  | 30.5  | 72.3  | 17:42 |
| 2761 | 15/03/2026 17:38:12 | 30.5  | 30.6  | 29.0  | 30.4  | 72.4  | 17:38 |
| 2760 | 15/03/2026 17:33:28 | 30.5  | 30.6  | 29.0  | 30.6  | 72.6  | 17:33 |
| 2759 | 15/03/2026 17:28:44 | 30.6  | 30.6  | 29.0  | 30.6  | 72.9  | 17:28 |
| 2758 | 15/03/2026 17:24:03 | 30.6  | 30.7  | 29.2  | 30.8  | 73.3  | 17:24 |
| 2757 | 15/03/2026 17:19:22 | 30.7  | 30.8  | 29.2  | 30.7  | 73.7  | 17:19 |
| 2756 | 15/03/2026 17:14:40 | 30.8  | 30.8  | 29.2  | 30.8  | 74.4  | 17:14 |
| 2755 | 15/03/2026 17:09:59 | 30.8  | 30.8  | 29.4  | 30.8  | 74.2  | 17:09 |
| 2754 | 15/03/2026 17:05:18 | 30.8  | 30.8  | 29.5  | 30.8  | 74.0  | 17:05 |
| 2753 | 15/03/2026 17:00:36 | 30.8  | 30.8  | 29.5  | 30.9  | 74.6  | 17:00 |
| 2752 | 15/03/2026 16:55:54 | 30.7  | 30.8  | 29.5  | 30.9  | 74.4  | 16:55 |
| 2751 | 15/03/2026 16:51:12 | 30.7  | 30.8  | 29.4  | 30.9  | 74.1  | 16:51 |
| 2750 | 15/03/2026 16:46:30 | 30.7  | 30.8  | 29.6  | 30.8  | 74.1  | 16:46 |
| 2749 | 15/03/2026 16:41:48 | 30.7  | 30.8  | 29.7  | 30.9  | 74.2  | 16:41 |
| 2748 | 15/03/2026 16:37:07 | 30.8  | 30.8  | 29.7  | 30.8  | 73.9  | 16:37 |
| 2747 | 15/03/2026 16:32:26 | 30.8  | 30.8  | 29.6  | 30.9  | 73.8  | 16:32 |
| 2746 | 15/03/2026 16:27:44 | 30.8  | 30.8  | 29.8  | 30.8  | 72.9  | 16:27 |
| 2745 | 15/03/2026 16:23:01 | 30.8  | 30.8  | 29.9  | 30.8  | 73.0  | 16:23 |
| 2744 | 15/03/2026 16:18:19 | 30.8  | 30.8  | 30.1  | 30.7  | 72.6  | 16:18 |
| 2743 | 15/03/2026 16:13:37 | 30.8  | 30.8  | 29.9  | 30.7  | 72.0  | 16:13 |
| 2742 | 15/03/2026 16:08:56 | 30.7  | 30.8  | 29.9  | 30.8  | 71.5  | 16:08 |
| 2741 | 15/03/2026 16:04:14 | 30.7  | 30.7  | 30.0  | 30.7  | 71.0  | 16:04 |
| 2740 | 15/03/2026 15:59:32 | 30.6  | 30.6  | 30.0  | 30.7  | 70.1  | 15:59 |